Retour au catalogue

STARLINK-36553

ActifCommunicationsVLEO
NORAD 67506·PAYLOAD·🇺🇸 United States

Lancé Jan 18, 2026 depuis Cape Canaveral Space Force Station

Loading…

Prochains Passages (prochaines 24 heures)

TLE

FraisSource: CelesTrak SupGP

Époque: Sep 15, 2026, 04:09 UTC

1 67506C 26012P   26258.17340278  .00035409  00000+0  12812-2 0  2584
2 67506  43.0024 323.9340 0001201 256.7011 154.5006 15.27594067    17

Suivez STARLINK-36553 en temps réel avec AllMySat

Download on the App Store